MFC-Alkoven Innentemperatur Messungen

Zurück zum Überblick

Zeitpunkt Temperatur Luftfeuchte
27.09.2020 17:55:21 19,2 C 51,0%
27.09.2020 17:48:20 19,3 C 50,0%
27.09.2020 17:41:18 19,3 C 51,0%
27.09.2020 17:34:15 19,3 C 51,0%
27.09.2020 17:27:14 19,4 C 51,0%
27.09.2020 17:20:13 19,3 C 51,0%
27.09.2020 17:13:11 19,3 C 50,0%
27.09.2020 17:06:09 19,2 C 51,0%
27.09.2020 16:59:09 19,1 C 50,0%
27.09.2020 16:52:05 19,1 C 50,0%
27.09.2020 16:45:04 19,0 C 50,0%
27.09.2020 16:38:00 19,0 C 51,0%
27.09.2020 16:30:58 19,0 C 50,0%
27.09.2020 16:23:57 18,8 C 51,0%
27.09.2020 16:16:54 18,8 C 50,0%
27.09.2020 16:09:52 18,8 C 50,0%
27.09.2020 16:02:50 18,8 C 50,0%
27.09.2020 15:55:47 18,7 C 50,0%
27.09.2020 15:48:45 18,7 C 50,0%
27.09.2020 15:41:43 18,7 C 50,0%
27.09.2020 15:34:40 18,6 C 50,0%
27.09.2020 15:27:38 18,5 C 50,0%
27.09.2020 15:20:34 18,4 C 51,0%
27.09.2020 15:13:34 18,4 C 51,0%
27.09.2020 15:06:31 18,4 C 51,0%
27.09.2020 14:59:29 18,3 C 51,0%
27.09.2020 14:52:28 18,2 C 52,0%
27.09.2020 14:45:27 18,1 C 52,0%
27.09.2020 14:38:25 18,1 C 52,0%
27.09.2020 14:31:23 18,1 C 51,0%
27.09.2020 14:24:22 18,0 C 52,0%
27.09.2020 14:17:21 17,9 C 52,0%
27.09.2020 14:10:20 17,9 C 52,0%
27.09.2020 14:03:19 17,8 C 52,0%
27.09.2020 13:56:16 17,7 C 53,0%
27.09.2020 13:49:14 17,6 C 52,0%
27.09.2020 13:42:13 17,5 C 52,0%
27.09.2020 13:35:10 17,5 C 53,0%
27.09.2020 13:28:06 17,4 C 53,0%
27.09.2020 13:21:05 17,4 C 53,0%
27.09.2020 13:14:02 17,2 C 53,0%
27.09.2020 13:07:00 17,1 C 53,0%
27.09.2020 12:59:57 17,0 C 54,0%
27.09.2020 12:52:57 17,0 C 54,0%
27.09.2020 12:45:57 17,0 C 54,0%
27.09.2020 12:38:55 16,9 C 54,0%
27.09.2020 12:31:53 16,7 C 54,0%
27.09.2020 12:24:53 16,6 C 55,0%
27.09.2020 12:17:50 16,5 C 55,0%
27.09.2020 12:10:48 16,5 C 55,0%
27.09.2020 12:03:47 16,5 C 54,0%
27.09.2020 11:56:45 16,5 C 54,0%
27.09.2020 11:49:43 16,4 C 55,0%
27.09.2020 11:42:40 16,4 C 55,0%
27.09.2020 11:35:39 16,4 C 54,0%
27.09.2020 11:28:36 16,4 C 54,0%
27.09.2020 11:21:34 16,4 C 54,0%
27.09.2020 11:14:33 16,4 C 54,0%
27.09.2020 11:07:32 16,4 C 54,0%
27.09.2020 11:00:31 16,4 C 54,0%
27.09.2020 10:53:28 16,3 C 54,0%
27.09.2020 10:46:27 16,3 C 54,0%
27.09.2020 10:39:26 16,2 C 54,0%
27.09.2020 10:32:23 16,2 C 55,0%
27.09.2020 10:25:22 16,1 C 54,0%
27.09.2020 10:18:18 16,1 C 55,0%
27.09.2020 10:11:16 16,1 C 55,0%
27.09.2020 10:04:14 16,0 C 55,0%
27.09.2020 09:57:12 16,0 C 55,0%
27.09.2020 09:50:10 15,9 C 55,0%
27.09.2020 09:43:08 15,9 C 55,0%
27.09.2020 09:36:05 15,8 C 54,0%
27.09.2020 09:29:03 15,9 C 54,0%
27.09.2020 09:22:02 15,8 C 54,0%
27.09.2020 09:15:00 15,9 C 54,0%
27.09.2020 09:07:56 15,8 C 54,0%
27.09.2020 09:00:56 15,7 C 54,0%
27.09.2020 08:53:56 15,8 C 54,0%
27.09.2020 08:46:54 15,7 C 54,0%
27.09.2020 08:39:52 15,7 C 54,0%
27.09.2020 08:32:49 15,7 C 54,0%
27.09.2020 08:25:48 15,7 C 54,0%
27.09.2020 08:18:47 15,7 C 54,0%
27.09.2020 08:11:44 15,8 C 54,0%
27.09.2020 08:04:41 15,7 C 54,0%
27.09.2020 07:57:40 15,7 C 54,0%
27.09.2020 07:50:37 15,7 C 54,0%
27.09.2020 07:43:36 15,7 C 54,0%
27.09.2020 07:36:34 15,8 C 54,0%
27.09.2020 07:29:32 15,8 C 54,0%
27.09.2020 07:22:32 15,8 C 54,0%
27.09.2020 07:15:29 15,8 C 54,0%
27.09.2020 07:08:29 15,7 C 54,0%
27.09.2020 07:01:26 15,8 C 54,0%
27.09.2020 06:54:24 15,8 C 54,0%
27.09.2020 06:47:22 15,8 C 54,0%
27.09.2020 06:40:22 15,8 C 54,0%
27.09.2020 06:33:18 15,8 C 54,0%
27.09.2020 06:26:17 15,9 C 54,0%
27.09.2020 06:19:14 15,9 C 54,0%
27.09.2020 06:12:13 15,8 C 54,0%
27.09.2020 06:05:11 15,8 C 54,0%
27.09.2020 05:58:09 15,9 C 54,0%
27.09.2020 05:51:08 15,9 C 54,0%
27.09.2020 05:44:06 15,9 C 54,0%
27.09.2020 05:37:05 15,9 C 54,0%
27.09.2020 05:30:01 16,0 C 54,0%
27.09.2020 05:22:58 16,0 C 54,0%
27.09.2020 05:15:56 15,9 C 54,0%
27.09.2020 05:08:54 16,0 C 54,0%
27.09.2020 05:01:53 16,0 C 54,0%
27.09.2020 04:54:50 16,0 C 54,0%
27.09.2020 04:47:47 16,0 C 54,0%
27.09.2020 04:40:45 16,0 C 54,0%
27.09.2020 04:33:44 16,0 C 54,0%
27.09.2020 04:26:42 16,1 C 54,0%
27.09.2020 04:19:40 16,0 C 54,0%
27.09.2020 04:12:39 16,0 C 54,0%
27.09.2020 04:05:37 16,1 C 54,0%
27.09.2020 03:58:34 16,1 C 54,0%
27.09.2020 03:51:32 16,1 C 54,0%
27.09.2020 03:44:31 16,1 C 54,0%
27.09.2020 03:37:30 16,1 C 54,0%
27.09.2020 03:30:29 16,1 C 54,0%
27.09.2020 03:23:26 16,1 C 54,0%
27.09.2020 03:16:24 16,1 C 54,0%
27.09.2020 03:09:21 16,1 C 54,0%
27.09.2020 03:02:20 16,1 C 54,0%
27.09.2020 02:55:18 16,2 C 54,0%
27.09.2020 02:48:17 16,2 C 54,0%
27.09.2020 02:41:16 16,2 C 54,0%
27.09.2020 02:34:13 16,2 C 54,0%
27.09.2020 02:27:12 16,1 C 54,0%
27.09.2020 02:20:10 16,2 C 54,0%
27.09.2020 02:13:14 16,2 C 53,0%
27.09.2020 02:06:06 16,2 C 53,0%
27.09.2020 01:59:03 16,2 C 53,0%
27.09.2020 01:52:00 16,3 C 53,0%
27.09.2020 01:44:57 16,3 C 53,0%
27.09.2020 01:37:54 16,2 C 53,0%
27.09.2020 01:30:52 16,3 C 53,0%
27.09.2020 01:23:50 16,2 C 53,0%
27.09.2020 01:16:49 16,2 C 53,0%
27.09.2020 01:09:47 16,3 C 53,0%
27.09.2020 01:02:44 16,3 C 53,0%
27.09.2020 00:55:41 16,4 C 53,0%
27.09.2020 00:48:41 16,3 C 53,0%
27.09.2020 00:41:38 16,3 C 53,0%
27.09.2020 00:34:35 16,3 C 53,0%
27.09.2020 00:27:33 16,3 C 53,0%
27.09.2020 00:20:30 16,4 C 53,0%
27.09.2020 00:13:29 16,4 C 52,0%
27.09.2020 00:06:28 16,4 C 52,0%